Tracking 18628 objects as of 25-April-2017
HD Live streaming from Space Station
objects crossing your sky now

FENGYUN 2B

Track FENGYUN 2B now!
FENGYUN 2B is classified as:


NORAD ID: 26382
Int'l Code: 2000-032A
Perigee: 35,822.5 km
Apogee: 35,869.3 km
Inclination: 9.9 °
Period: 1,438.8 minutes
Semi major axis: 42216 km
RCS: 15.8489 m2 (large)
Launch date: June 25, 2000
Source: People's Republic of China (PRC)
Launch site: Xichang Space Center, China (XSC)

Scanning radiometer, a cloud mapper, water vapor scanner to provide timely weather data; provides hoursly full-disk images of Earth in visible and infrared wavelengths.
Your satellite tracking list
Your tracking list is empty





NASA's NSSDC Master Catalog

Two Line Element Set (TLE):
1 26382U 00032A   17113.67805897 +.00000122 +00000-0 +00000-0 0  9994
2 26382 009.8691 040.7867 0005550 238.8746 206.7021 01.00086012061486
Source of the keplerian elements: AFSPC